TimeCDT,TemperatureF,Dew PointF,Humidity,Sea Level PressureIn,VisibilityMPH,Wind Direction,Wind SpeedMPH,Gust SpeedMPH,PrecipitationIn,Events,Conditions,WindDirDegrees,DateUTC
12:53 AM,52.0,48.0,86,30.08,10.0,SSE,9.2,-,N/A,,Clear,160,2013-09-17 05:53:00
1:53 AM,50.0,48.0,93,30.06,10.0,SSE,8.1,-,N/A,,Clear,160,2013-09-17 06:53:00
2:53 AM,51.1,48.0,89,30.04,10.0,SSE,8.1,-,N/A,,Clear,160,2013-09-17 07:53:00
3:37 AM,53.6,50.0,88,30.02,10.0,South,10.4,-,N/A,,Mostly Cloudy,170,2013-09-17 08:37:00
3:53 AM,54.0,50.0,86,30.01,10.0,South,12.7,-,N/A,,Overcast,170,2013-09-17 08:53:00
4:53 AM,55.9,51.1,84,29.99,10.0,SSE,11.5,-,N/A,,Overcast,160,2013-09-17 09:53:00
5:53 AM,57.0,52.0,83,29.97,10.0,South,12.7,-,N/A,,Overcast,170,2013-09-17 10:53:00
6:49 AM,57.2,53.6,88,29.96,10.0,South,13.8,20.7,N/A,,Overcast,170,2013-09-17 11:49:00
6:53 AM,57.0,53.1,87,29.96,10.0,South,15.0,-,N/A,,Overcast,170,2013-09-17 11:53:00
7:32 AM,57.2,53.6,88,29.96,10.0,South,13.8,-,N/A,,Overcast,170,2013-09-17 12:32:00
7:53 AM,57.9,54.0,87,29.96,10.0,South,16.1,23.0,N/A,,Overcast,170,2013-09-17 12:53:00
8:53 AM,57.9,54.0,87,29.95,10.0,South,15.0,21.9,N/A,,Overcast,170,2013-09-17 13:53:00
9:16 AM,59.0,53.6,82,29.94,10.0,South,16.1,23.0,N/A,,Overcast,170,2013-09-17 14:16:00
9:53 AM,59.0,54.0,83,29.94,10.0,SSE,18.4,-,N/A,,Overcast,160,2013-09-17 14:53:00
10:48 AM,60.8,55.4,82,29.92,10.0,South,19.6,24.2,N/A,,Overcast,180,2013-09-17 15:48:00
10:53 AM,60.1,55.0,83,29.93,10.0,South,15.0,24.2,N/A,,Overcast,180,2013-09-17 15:53:00
11:19 AM,60.8,55.4,82,29.92,10.0,South,20.7,25.3,N/A,,Overcast,170,2013-09-17 16:19:00
11:53 AM,61.0,55.0,81,29.92,10.0,South,18.4,25.3,N/A,,Overcast,180,2013-09-17 16:53:00
12:53 PM,62.1,55.9,80,29.90,10.0,South,17.3,25.3,N/A,,Overcast,180,2013-09-17 17:53:00
1:53 PM,64.0,55.9,75,29.87,10.0,South,19.6,25.3,N/A,,Overcast,170,2013-09-17 18:53:00
2:53 PM,64.9,57.0,75,29.85,10.0,South,17.3,27.6,N/A,,Overcast,170,2013-09-17 19:53:00
3:53 PM,66.9,57.0,70,29.83,10.0,South,12.7,23.0,N/A,,Overcast,180,2013-09-17 20:53:00
4:53 PM,66.0,57.9,75,29.81,10.0,South,12.7,20.7,N/A,,Overcast,170,2013-09-17 21:53:00
5:53 PM,66.0,57.9,75,29.80,10.0,South,8.1,-,N/A,,Overcast,170,2013-09-17 22:53:00
6:53 PM,66.0,57.9,75,29.79,10.0,SSE,10.4,-,N/A,,Overcast,160,2013-09-17 23:53:00
7:53 PM,64.9,57.9,78,29.77,10.0,SSE,13.8,-,N/A,,Overcast,150,2013-09-18 00:53:00
8:00 PM,64.4,57.2,77,29.78,10.0,SSE,10.4,-,N/A,,Overcast,150,2013-09-18 01:00:00
8:53 PM,64.0,59.0,84,29.78,10.0,SE,10.4,-,N/A,,Overcast,140,2013-09-18 01:53:00
9:53 PM,63.0,59.0,87,29.79,10.0,SSE,11.5,-,N/A,,Overcast,150,2013-09-18 02:53:00
10:25 PM,62.6,59.0,88,29.79,10.0,SE,8.1,-,N/A,,Overcast,130,2013-09-18 03:25:00
10:32 PM,62.6,59.0,88,29.79,10.0,SE,6.9,-,N/A,,Overcast,130,2013-09-18 03:32:00
10:44 PM,62.6,59.0,88,29.78,10.0,SE,8.1,-,N/A,,Overcast,130,2013-09-18 03:44:00
10:53 PM,62.1,59.0,90,29.77,10.0,SE,8.1,-,N/A,,Overcast,130,2013-09-18 03:53:00
11:16 PM,62.6,59.0,88,29.77,9.0,SE,11.5,-,N/A,,Overcast,140,2013-09-18 04:16:00
11:48 PM,62.6,60.8,94,29.76,9.0,SE,8.1,-,N/A,,Overcast,140,2013-09-18 04:48:00
11:53 PM,63.0,60.1,90,29.76,9.0,SE,10.4,-,N/A,,Overcast,140,2013-09-18 04:53:00